Temperature
14 13 13 13 13 13 13 13 13 13 12 13 13 13 13 13 13 13 13 13 13 13 13 14 14 14 14 14 14 14 14 14 14 15 15 15 15 15
13 13 13 13 13 13 13 13 13 13 12 12 12 12 12 13 13 13 13 13 13 13 13 13 13 13 13 13 14 14 14 14 14 14 14 14 15 15
13 13 13 13 13 13 13 13 13 12 12 12 12 12 12 12 13 13 13 13 13 13 13 13 13 13 13 13 13 13 13 14 14 14 14 14 14 14
13 13 13 13 13 13 13 12 12 12 12 12 12 12 12 12 12 12 12 12 12 12 12 12 12 12 12 13 13 13 13 13 13 13 13 14 14 14
13 13 13 13 13 12 12 12 12 12 12 12 12 12 11 11 11 12 12 12 12 12 12 12 12 12 12 12 12 12 12 12 13 13 13 13 13 14
13 13 13 13 12 12 12 12 12 12 12 12 11 11 11 11 11 11 11 11 11 11 11 11 11 11 11 11 12 12 12 12 12 12 12 13 13 13
13 13 13 12 12 12 12 12 12 11 11 11 11 11 11 11 11 10 10 11 11 11 11 11 11 11 11 11 11 11 11 11 11 12 12 12 12 12
13 13 12 12 12 12 12 11 11 11 11 11 11 10 10 10 10 10 10 10 10 10 10 10 10 10 10 10 10 10 10 11 11 11 11 11 11 12
13 12 12 12 12 11 11 11 11 11 10 10 10 10 10 9 9 9 9 9 9 9 9 9 10 10 10 10 10 10 10 10 10 10 10 11 11 11
12 12 12 12 11 11 11 11 11 10 10 10 10 9 9 9 9 9 8 8 9 9 8 9 9 9 9 9 9 9 9 10 10 10 10 10 10 10
12 12 12 11 11 11 11 11 10 10 10 10 9 9 9 9 8 8 8 8 8 8 8 8 8 8 9 9 9 9 9 9 9 9 9 9 10 10
12 12 11 11 11 10 10 10 10 10 10 10 9 9 9 9 8 8 8 7 7 7 7 7 7 7 7 8 8 8 8 8 9 9 9 9 9 9
12 11 11 11 11 10 10 10 10 9 9 9 9 9 9 9 8 8 7 7 7 7 7 6 6 6 6 6 7 7 7 8 8 8 8 8 8 8
11 11 11 10 10 10 10 9 9 9 9 9 8 8 8 8 8 7 7 7 7 6 6 6 6 5 5 5 6 6 7 7 7 7 7 7 7 7
11 11 10 10 10 9 9 9 9 8 8 8 8 8 8 7 7 7 7 7 6 6 6 6 5 5 5 5 5 5 5 6 6 6 6 6 7 7
11 10 10 10 9 9 9 9 8 8 8 7 7 7 7 7 7 6 6 6 6 6 6 5 5 5 5 5 4 5 5 5 5 5 6 6 6 6
10 10 10 9 9 9 9 8 8 8 7 7 7 7 7 6 6 6 5 5 5 5 5 5 5 5 4 4 4 4 4 5 5 5 5 5 5 6
10 9 9 9 9 9 8 8 8 7 7 7 6 6 6 6 5 5 5 5 4 4 4 4 4 4 4 4 4 4 4 4 4 4 4 4 5 5
9 9 9 8 8 8 8 8 7 7 7 6 6 6 5 5 5 5 4 4 4 4 4 4 4 3 3 3 4 4 3 4 3 3 3 3 4 4
9 8 8 8 8 8 7 7 7 6 6 6 5 5 5 5 4 4 4 4 4 3 3 3 3 3 3 2 3 3 3 3 3 3 3 3 3 4
8 8 8 7 7 7 7 7 6 6 6 5 5 5 5 4 4 4 4 3 3 3 3 3 3 3 2 2 2 3 3 3 3 2 2 2 3 3
8 7 7 7 7 6 6 6 6 5 5 5 5 5 4 4 4 3 3 3 3 3 2 2 2 2 2 2 2 2 2 3 3 2 2 2 2 2
7 7 7 6 6 6 6 5 5 5 5 5 4 4 4 4 3 3 3 3 2 2 2 2 2 2 2 2 1 1 2 2 2 2 2 2 2 2
Wind_Speed
4 4 3 3 3 2 2 3 3 2 2 3 3 4 7 7 8 9 9 11 11 11 11 11 11 11 11 11 10 9 8 7 7 7 7 7 7 5
3 5 4 3 3 3 3 2 2 3 0 2 2 3 5 7 9 9 9 11 11 12 12 12 12 11 11 11 11 11 9 8 8 7 7 7 7 7
3 4 3 3 3 3 3 3 2 2 1 2 2 3 3 4 6 8 9 9 9 11 11 11 12 12 12 12 12 11 11 10 9 9 8 8 8 8
3 3 3 3 4 3 3 3 2 1 2 1 2 3 3 3 4 4 7 8 9 10 11 11 12 12 12 13 13 12 12 11 11 11 10 10 10 9
3 3 2 3 3 2 2 2 1 2 1 1 2 2 2 3 4 4 5 5 8 10 11 11 11 12 13 13 13 13 13 13 12 11 11 10 11 11
2 2 1 2 1 1 1 1 1 2 2 1 2 2 2 3 2 4 5 4 5 8 9 10 12 13 13 14 14 14 14 14 13 12 11 11 11 11
1 1 0 1 0 1 0 0 1 1 1 1 2 2 3 3 3 3 4 5 5 3 4 6 8 8 11 13 14 14 14 14 13 13 12 11 11 11
1 1 1 1 2 3 2 1 0 0 1 1 1 2 4 3 3 3 3 4 4 3 3 5 4 5 8 10 13 14 14 15 14 13 13 12 12 12
2 1 1 1 2 1 3 3 3 3 2 2 2 4 4 4 3 3 3 3 5 5 3 5 4 5 8 11 13 14 14 15 15 14 13 13 13 12
2 3 2 2 1 1 1 2 3 4 3 2 3 5 5 4 4 3 4 4 5 4 2 4 5 5 7 9 12 13 14 15 15 14 14 14 13 13
2 2 3 2 3 2 0 2 3 4 5 6 7 7 8 8 6 2 3 3 5 5 2 2 4 5 5 5 9 12 14 15 16 15 15 14 14 13
2 2 3 4 4 3 2 2 3 5 5 5 6 7 7 7 7 3 3 3 4 4 3 2 3 4 5 4 4 8 11 14 15 15 15 14 13 9
3 3 4 5 5 4 3 3 5 5 4 4 4 4 4 4 4 4 4 4 4 6 5 3 3 3 4 6 5 5 6 7 9 11 13 13 12 8
4 4 4 6 6 6 4 5 8 6 2 3 3 4 4 5 5 5 7 7 8 9 9 5 4 5 5 7 7 5 5 7 7 6 8 10 11 12
5 6 6 6 6 5 7 7 6 3 2 3 5 5 5 5 5 5 6 6 8 10 10 8 6 6 5 7 7 7 7 6 5 5 6 6 6 6
5 5 6 6 4 5 5 5 4 4 4 5 5 5 4 4 4 4 4 4 5 6 7 10 9 7 7 8 8 9 7 6 5 5 6 6 6 7
4 2 2 2 3 4 4 4 4 4 4 4 4 5 5 5 5 4 4 4 5 6 7 6 7 8 8 8 8 9 9 8 7 6 6 8 7 7
4 3 4 5 5 6 5 5 4 5 5 5 5 5 5 6 6 5 4 5 6 7 7 7 6 6 6 6 9 9 8 8 7 6 6 7 9 7
5 5 5 6 6 6 6 6 6 6 5 5 5 6 6 6 5 6 5 6 7 7 7 6 5 5 8 11 7 9 8 7 6 7 7 8 9 9
5 6 7 7 6 6 7 6 6 6 5 5 6 6 6 5 6 6 6 7 8 8 8 6 6 7 8 10 10 8 10 9 7 8 8 7 8 10
6 7 7 7 7 7 7 7 7 6 6 6 6 6 6 6 6 7 7 10 9 8 9 9 8 10 7 6 7 8 7 11 12 9 8 8 9 8
6 7 7 7 7 7 7 6 6 6 7 7 7 6 6 6 7 8 8 8 8 8 10 9 8 7 5 8 10 11 10 8 10 15 16 14 9 8
6 6 6 6 6 6 6 7 7 7 7 7 7 6 6 7 7 7 8 8 8 9 9 9 8 6 7 8 10 10 11 10 7 7 9 14 18 19
Wind_Direction
73 68 63 39 44 59 85 114 123 72 350 320 333 340 353 4 5 10 6 6 7 6 9 11 10 8 6 1 356 349 342 339 339 331 320 307 300 290
70 69 55 38 40 45 62 75 104 134 158 292 296 310 341 0 4 5 2 5 5 5 6 6 5 3 1 356 351 343 336 331 325 323 319 309 297 289
68 75 59 52 48 39 50 62 68 103 122 306 309 328 354 353 354 2 1 359 357 356 355 354 353 352 348 347 345 340 334 326 319 314 312 308 299 291
83 79 59 59 48 35 44 45 46 81 130 325 326 338 340 334 337 344 350 349 343 343 346 348 347 343 340 339 335 332 329 326 320 311 307 304 301 295
112 107 91 77 51 32 42 41 23 35 79 118 319 323 322 336 345 339 338 337 337 335 336 338 337 335 333 334 331 324 321 319 317 311 305 302 301 297
112 122 134 131 143 120 59 45 51 43 38 39 338 328 320 321 350 339 333 330 325 330 330 330 330 329 327 325 323 321 317 314 311 309 303 299 297 296
74 81 141 149 144 142 107 164 103 72 32 16 339 338 329 333 328 317 320 316 312 316 322 320 324 322 318 318 317 314 314 313 311 310 305 300 296 294
153 311 330 6 6 6 359 353 134 138 211 209 283 289 287 284 295 307 312 331 316 308 322 306 316 308 309 309 312 314 315 316 311 307 303 299 295 294
182 210 316 350 12 357 347 353 344 333 293 220 239 259 267 268 278 293 289 285 281 287 307 299 306 303 305 311 316 319 320 318 312 305 300 298 296 292
203 201 204 263 287 280 325 340 317 307 299 278 242 255 262 255 235 254 266 286 284 286 291 288 298 296 302 309 317 325 326 324 319 312 306 300 298 291
243 214 204 223 267 282 327 308 313 310 311 305 297 298 301 300 297 303 312 317 307 297 293 272 290 299 294 291 307 322 324 320 316 311 310 307 303 297
262 263 247 240 256 261 225 244 285 288 301 315 319 316 312 307 304 274 247 273 289 292 279 274 288 312 306 285 294 312 314 311 310 305 303 304 306 306
236 253 255 262 265 270 258 235 261 281 282 286 293 300 304 302 298 283 252 234 256 267 269 258 273 279 270 290 294 287 295 300 304 302 301 298 298 298
231 240 246 258 265 273 271 277 288 299 293 293 293 292 291 288 282 282 274 260 250 254 267 258 256 262 274 286 289 290 288 290 287 287 296 295 293 292
233 235 242 253 263 273 279 287 291 280 270 273 275 274 267 267 279 290 289 284 279 275 275 264 251 257 255 268 279 282 290 284 272 275 284 278 274 281
240 250 256 265 261 264 279 283 266 252 249 252 264 267 272 275 276 275 279 285 289 290 284 275 261 251 262 264 267 276 274 273 276 272 276 277 275 273
210 224 243 258 265 271 273 272 266 267 264 257 260 271 277 278 278 274 266 268 271 284 293 291 279 263 250 255 268 269 271 271 266 270 277 283 273 263
195 222 237 242 249 256 262 267 261 255 254 255 258 261 268 273 277 278 270 268 273 277 280 285 293 299 293 270 237 257 266 267 269 266 262 275 280 269
215 233 239 243 246 249 250 253 258 256 250 247 251 257 263 268 273 277 278 278 278 277 276 276 275 275 289 294 274 235 252 269 271 269 261 259 271 274
226 237 244 246 245 247 250 252 256 257 250 248 250 254 255 261 269 273 273 275 279 282 282 275 265 260 264 278 285 278 258 255 264 268 269 267 268 270
236 241 243 245 247 248 250 250 250 250 248 246 250 251 251 254 261 265 269 273 275 278 278 276 271 267 270 275 279 278 269 257 253 259 265 273 279 278
245 247 249 250 250 251 252 251 252 251 249 249 251 252 251 251 257 263 267 272 274 274 277 280 280 277 266 266 275 281 284 277 267 266 262 256 260 265
247 251 252 254 254 253 251 251 252 253 250 248 249 251 252 254 257 260 265 269 273 277 281 285 285 275 268 265 273 278 277 278 277 275 271 266 260 263
Height
1556 1556 1556 1555 1555 1555 1555 1555 1555 1553 1553 1552 1551 1550 1549 1548 1546 1545 1544 1543 1542 1541 1540 1539 1539 1538 1537 1536 1536 1535 1535 1534 1534 1534 1534 1534 1533 1532
1558 1557 1557 1557 1556 1556 1556 1555 1555 1554 1553 1553 1552 1551 1549 1548 1547 1545 1544 1542 1541 1540 1539 1539 1538 1537 1536 1535 1534 1534 1533 1532 1532 1532 1531 1531 1531 1531
1558 1558 1558 1557 1557 1557 1556 1555 1555 1554 1553 1552 1551 1550 1549 1548 1546 1545 1543 1542 1540 1539 1538 1537 1536 1535 1534 1534 1533 1532 1531 1530 1530 1529 1529 1528 1528 1528
1558 1558 1558 1557 1557 1557 1556 1555 1555 1554 1553 1551 1551 1549 1548 1547 1545 1544 1543 1541 1540 1538 1537 1536 1535 1533 1532 1531 1530 1529 1528 1528 1527 1526 1526 1525 1525 1525
1558 1558 1558 1557 1557 1556 1555 1555 1554 1553 1552 1551 1549 1548 1547 1546 1544 1543 1541 1540 1538 1537 1535 1534 1533 1531 1530 1528 1527 1526 1525 1524 1523 1523 1522 1521 1521 1521
1558 1558 1557 1556 1556 1555 1554 1554 1553 1552 1551 1549 1548 1547 1545 1544 1542 1540 1538 1537 1536 1534 1533 1531 1530 1528 1527 1525 1524 1523 1521 1520 1519 1518 1518 1517 1517 1516
1557 1557 1556 1556 1555 1554 1553 1552 1551 1550 1549 1548 1546 1545 1543 1542 1540 1538 1536 1534 1532 1531 1529 1528 1526 1524 1523 1521 1520 1518 1517 1516 1515 1514 1513 1513 1512 1511
1556 1556 1555 1554 1553 1552 1551 1550 1550 1548 1546 1545 1544 1543 1541 1540 1538 1536 1533 1531 1528 1528 1525 1523 1522 1520 1518 1517 1515 1514 1513 1512 1511 1510 1509 1508 1507 1506
1554 1554 1553 1552 1551 1550 1549 1548 1547 1546 1545 1544 1541 1540 1539 1537 1535 1533 1531 1528 1526 1524 1521 1518 1518 1516 1514 1512 1511 1510 1508 1507 1506 1505 1503 1502 1501 1501
1552 1551 1551 1550 1549 1548 1547 1545 1544 1543 1542 1540 1539 1537 1536 1534 1532 1530 1527 1525 1523 1521 1519 1515 1513 1511 1509 1508 1506 1505 1503 1501 1500 1499 1498 1497 1496 1495
1549 1549 1548 1547 1546 1545 1544 1542 1541 1540 1539 1537 1536 1534 1532 1531 1529 1526 1524 1521 1517 1516 1515 1512 1508 1506 1503 1502 1501 1499 1497 1496 1494 1493 1492 1491 1489 1488
1546 1545 1545 1544 1543 1542 1540 1539 1537 1536 1534 1533 1531 1530 1528 1526 1525 1523 1520 1517 1514 1511 1510 1508 1504 1502 1497 1495 1494 1493 1491 1490 1488 1487 1485 1484 1483 1481
1542 1541 1541 1540 1539 1538 1537 1535 1533 1532 1530 1528 1526 1525 1523 1522 1520 1518 1516 1514 1511 1508 1506 1504 1500 1498 1495 1490 1487 1487 1485 1483 1481 1480 1479 1477 1476 1475
1538 1537 1537 1536 1535 1534 1532 1531 1529 1528 1526 1524 1522 1520 1518 1516 1515 1513 1511 1509 1506 1504 1501 1499 1496 1493 1489 1485 1481 1479 1478 1477 1475 1473 1471 1470 1469 1468
1533 1533 1532 1531 1530 1529 1528 1526 1525 1523 1520 1518 1516 1514 1513 1511 1509 1507 1505 1503 1500 1498 1496 1493 1491 1487 1484 1481 1476 1473 1471 1469 1468 1466 1464 1463 1461 1460
1529 1528 1527 1527 1525 1524 1523 1521 1519 1517 1515 1513 1511 1509 1507 1505 1503 1501 1498 1495 1493 1490 1489 1487 1484 1481 1478 1475 1471 1467 1465 1463 1460 1459 1457 1455 1454 1453
1524 1523 1522 1521 1519 1518 1517 1515 1513 1512 1510 1507 1505 1503 1501 1499 1496 1494 1492 1489 1486 1483 1480 1479 1477 1474 1471 1468 1464 1461 1458 1456 1454 1452 1449 1446 1446 1445
1518 1516 1515 1514 1513 1512 1510 1508 1507 1505 1503 1502 1499 1497 1495 1492 1490 1488 1486 1483 1480 1477 1474 1472 1469 1465 1462 1459 1459 1454 1452 1449 1447 1445 1443 1439 1436 1436
1512 1510 1509 1508 1507 1505 1504 1502 1500 1499 1497 1495 1493 1491 1489 1486 1483 1481 1479 1476 1473 1470 1468 1466 1463 1460 1455 1450 1448 1449 1446 1442 1440 1437 1435 1433 1429 1427
1504 1503 1503 1501 1500 1499 1497 1495 1494 1492 1491 1488 1486 1484 1482 1480 1477 1474 1472 1470 1467 1463 1460 1458 1456 1453 1450 1445 1440 1438 1438 1435 1432 1429 1427 1424 1422 1420
1498 1497 1496 1495 1493 1492 1490 1488 1487 1485 1483 1481 1479 1477 1475 1473 1470 1468 1465 1462 1460 1456 1453 1450 1448 1446 1443 1439 1434 1429 1429 1428 1426 1423 1419 1417 1413 1411
1491 1490 1488 1487 1486 1484 1483 1481 1479 1478 1476 1474 1472 1470 1468 1466 1463 1461 1458 1455 1452 1449 1446 1443 1440 1438 1435 1431 1426 1422 1419 1418 1416 1415 1413 1411 1408 1403
1484 1483 1481 1480 1479 1477 1475 1474 1472 1470 1468 1467 1465 1463 1461 1458 1456 1454 1451 1448 1445 1442 1438 1435 1432 1429 1426 1423 1419 1415 1411 1409 1407 1405 1403 1402 1400 1398